Regional Weather Roundup
Issued by NWS San Angelo, TX

Home | Current Version | Previous Version | Text Only | Print | Product List | Glossary On
Versions: 1 2 3 4 5 6 7 8 9 10 11 12 13 14 15 16 17 18 19 20 21 22 23 24 25 26 27 28 29 30 31 32 33 34 35 36 37 38 39 40 41 42 43 44 45 46 47 48 49 50
000
ASUS44 KSJT 291411
RWRSJT
WEST CENTRAL TEXAS REGIONAL WEATHER ROUNDUP
NATIONAL WEATHER SERVICE SAN ANGELO TX
900 AM CDT SUN MAY 29 2016

NOTE: "FAIR" INDICATES FEW OR NO CLOUDS BELOW 12,000 FEET WITH NO
SIGNIFICANT WEATHER AND/OR OBSTRUCTIONS TO VISIBILITY.

TXZ049-054-064>066-071>073-076>078-098-099-113-114-127-128-139-140-
154-155-168>170-291500
...LOCATIONS ACROSS WEST CENTRAL TEXAS...

CITY           SKY/WX    TMP DP  RH WIND       PRES   REMARKS
SAN ANGELO     SUNNY     73  61  65 S13       30.09S
ABILENE        CLOUDY    68  63  84 SE9       30.12R
DYESS AFB      MOSUNNY   70  61  71 SE5       30.11R
JUNCTION       CLOUDY    70  59  68 E16       30.12F
SWEETWATER     MOSUNNY   69  62  79 SE6       30.16S
BROWNWOOD      CLOUDY    72  64  78 S5        30.08R
COLEMAN        PTSUNNY   73  61  67 CALM      30.10R
SONORA         CLOUDY    72  61  68 SE10      30.18R
OZONA          PTSUNNY   70  59  68 SE12G17   30.16R
BRADY          NOT AVBL
$$

TEXAS PANHANDLE/OKLAHOMA PANHANDLE

CITY           SKY/WX    TMP DP  RH WIND       PRES   REMARKS
AMARILLO       MOSUNNY   67  54  63 S15       30.20R
BORGER         PTSUNNY   69  55  60 S6        30.19R
CANADIAN       MOSUNNY   73  60  64 SW12      30.16R
DALHART        MOSUNNY   65  55  70 SE13      30.21R
DUMAS          SUNNY     64  57  79 SE8       30.20S
GUYMON         NOT AVBL
HEREFORD       MOSUNNY   70  57  63 S17G25    30.18R
PAMPA          CLOUDY    68  56  65 S13G20    30.21R
PERRYTON       CLOUDY    66  61  82 CALM      30.19R
$$

SOUTHERN PANHANDLE/SOUTH PLAINS/ROLLING PLAINS

CITY           SKY/WX    TMP DP  RH WIND       PRES   REMARKS
LUBBOCK        PTSUNNY   70  58  65 S18       30.15S
SNYDER           N/A     68  60  75 SE12      30.14R
CHILDRESS      SUNNY     71  57  61 S14       30.13R
SEMINOLE       CLOUDY    68  60  76 SE17      30.15R
$$

PERMIAN BASIN

CITY           SKY/WX    TMP DP  RH WIND       PRES   REMARKS
MIDLAND        CLOUDY    72  60  66 SE21G28   30.12R
ODESSA         CLOUDY    72  60  66 SE20      30.12R
WINK           NOT AVBL
$$

FAR WEST/SOUTHWEST MOUNTAINS/TRANS PECOS

CITY           SKY/WX    TMP DP  RH WIND       PRES   REMARKS
ALPINE         CLOUDY    72  62  71 S9        30.21R
DRYDEN           N/A     70  65  84 E16G30    30.10R
EL PASO        MOSUNNY   73  13  10 E5        30.09R
FORT STOCKTON  NOT AVBL
GUADALUPE PASS NOT AVBL
MARFA          CLOUDY    68  61  78 E6        30.21R
PECOS          CLOUDY    76  67  73 SE22G28   30.05S
$$

DALLAS/FORT WORTH METROPLEX

CITY           SKY/WX    TMP DP  RH WIND       PRES   REMARKS
DFW AIRPORT    CLOUDY    71  66  84 N8        30.08F
FTW MEACHAM    CLOUDY    73  64  73 NW5       30.08F
DAL-EXECUTIVE  CLOUDY    69  64  84 E6        30.08F
GRAND PRAIRIE  SUNNY     68  68 100 E5        30.10S
ADDISON        PTSUNNY   72  64  78 CALM      30.09F
MESQUITE       SUNNY     70  64  83 CALM      30.10S
LANCASTER      CLOUDY    69  63  79 S3        30.11R
$$

NORTH CENTRAL TEXAS

CITY           SKY/WX    TMP DP  RH WIND       PRES   REMARKS
SHRMAN/DENISON PTSUNNY   74  49  40 S30G36    30.08F
GAINESVILLE    CLOUDY    74  56  53 S16G24    30.10R
BRIDGEPORT     CLOUDY    68  63  82 SE8       30.10S
DENTON         CLOUDY    70  64  81 E3        30.09F
WAXAHACHIE     CLOUDY    71  68  88 SE6       30.11F
GRANBURY       CLOUDY    70  64  82 CALM      30.10S
$$

WESTERN NORTH TEXAS

CITY           SKY/WX    TMP DP  RH WIND       PRES   REMARKS
WICHITA FALLS  MOSUNNY   75  57  53 SE7       30.09R
VERNON         SUNNY     72  53  50 S6        30.11S
BRECKENRIDGE   CLOUDY    70  60  70 SE10      30.09S
COMANCHE       CLOUDY    69  66  91 E7        30.09S
$$

CENTRAL AND SOUTH CENTRAL TEXAS

CITY           SKY/WX    TMP DP  RH WIND       PRES   REMARKS
AUSTIN/BERGSTM CLOUDY    73  64  73 E18       30.03R
WACO           PTSUNNY   74  62  66 N12       30.11F
HILLSBORO      CLOUDY    72  64  77 E6        30.12F
TEMPLE         MOSUNNY   72  66  81 N15       30.12R
KILLEEN-GRAY   MOSUNNY   72  64  76 N14       30.12R
FORT HOOD      MOSUNNY   70  65  85 NE15      30.10R
GEORGETOWN     SUNNY     75  70  83 N7        30.11R
LAGO VISTA     FAIR      71  68  91 N9        30.13R
SAN MARCOS     SUNNY     70  66  88 CALM      30.07F
NEW BRAUNFELS  CLOUDY    71  69  93 N13       30.05F
RANDOLPH AFB   CLOUDY    71  69  93 E6        30.06R
SAN ANTONIO    CLOUDY    73  67  81 E8        30.05R
STINSON        CLOUDY    73  65  75 NE9       30.01S
PLEASANTON     NOT AVBL
LA GRANGE        N/A     76  75  97 S3        30.09F
GIDDINGS       CLOUDY    74  73  93 S8G16     30.14R
$$

EAST TEXAS

CITY           SKY/WX    TMP DP  RH WIND       PRES   REMARKS
PARIS          CLOUDY    75  64  69 W6        30.12R
CLARKSVILLE    NOT AVBL
TYLER          CLOUDY    76  72  87 SW7       30.13R
LONGVIEW       PTSUNNY   77  73  87 VRB6      30.11R
PALESTINE      CLOUDY    74  74  98 CALM      30.15R
NACOGDOCHES    CLOUDY    72  70  94 CALM      30.13R
$$

TEXAS HILL COUNTRY AND EDWARDS PLATEAU

CITY           SKY/WX    TMP DP  RH WIND       PRES   REMARKS
LLANO          SUNNY     79  63  57 E5        30.17R
HORSESHOE BAY  FAIR      74  66  77 NW6       30.13R
KERRVILLE      PTSUNNY   71  65  82 N9        30.13R
FREDERICKSBRG  RAIN      65  62  87 NW13      30.14F
ROCKSPRINGS    MOSUNNY   70  63  78 CALM      30.19R
HONDO            N/A     72  66  81 S5        30.09R
UVALDE         CLOUDY    71  67  85 E10       30.08S
DEL RIO        LGT RAIN  70  67  90 E10       30.07R
$$

SOUTHEAST TEXAS

CITY           SKY/WX    TMP DP  RH WIND       PRES   REMARKS
COLLEGE STN    CLOUDY    77  73  87 E5        30.07F
CALDWELL       CLOUDY    73  73 100 SE7       30.10F
CROCKETT       PTSUNNY   73  73 100 CALM      30.15S
BRENHAM        FOG       76  75  96 E7        30.10F VSB 1/2
HUNTSVILLE     PTSUNNY   77  72  84 S3        30.12R
CONROE         PTSUNNY   76  73  91 SE3       30.11S
HOUSTON BUSH   CLOUDY    76  73  91 CALM      30.10S
HOUSTON HOBBY  PTSUNNY   80  76  87 E3        30.09R
PERLAND        CLOUDY    81  76  84 E3        30.11R
WHARTON        PTSUNNY   76  75  96 E5        30.11R
$$

THE UPPER TEXAS COAST

CITY           SKY/WX    TMP DP  RH WIND       PRES   REMARKS
ORANGE         CLOUDY    76  74  92 CALM      30.13R FOG
PORT ARTHUR    CLOUDY    79  75  87 NE5       30.10R
GALVESTON      PTSUNNY   79  75  87 E8        30.10R
ANGLETON       CLOUDY    81  76  84 E5        30.10R
BAY CITY       PTSUNNY   79  78  96 CALM      30.11R
$$

TEXAS COASTAL BEND, RIO GRANDE PLAINS DEEP SOUTH TEXAS

CITY           SKY/WX    TMP DP  RH WIND       PRES   REMARKS
VICTORIA       CLOUDY    75  74  96 NE5       30.10R
BEEVILLE       FAIR      69  69 100 NE6       30.09R
ROCKPORT       CLOUDY    82  75  79 E10       30.08R
PORT ARANSAS   CLOUDY    83  76  79 E12       30.07R
PORT LAVACA    CLOUDY    78  76  95 CALM      30.10R
CORPUS CHRISTI CLOUDY    82  75  79 E15       30.07R
KINGSVILLE NAS CLOUDY    80  80 100 NE8       30.06R
COTULLA        CLOUDY    77  69  76 E16       30.06R
LAREDO         CLOUDY    81  74  79 E14       30.01F
BROWNSVILLE    CLOUDY    83  77  82 SE8       30.02R
PORT ISABEL    CLOUDY    83  78  85 E10       30.01R
HEBBRONVILLE   CLOUDY    80  75  85 E10       30.06S
MCALLEN        CLOUDY    84  78  82 E8        30.02R
WESLACO        HAZE      82  76  83 E7        30.01R VSB<1/4
FALFURRIAS     CLOUDY    81  76  85 E9        30.04R
EDINBURG       MOSUNNY   84  77  79 E10       30.02R
$$



USA.gov is the U.S. government's official web portal to all federal, state and local government web resources and services.